2023/01/01 23:33:01+0000,-34.92,-42.91,-32.18,-36.02,-48.01,-54.89
2023/01/01 23:33:53+0000,-35.35,-43.20,-31.69,-35.58,-48.12,-53.47
2023/01/01 23:34:45+0000,-36.40,-43.88,-32.17,-35.46,-48.09,-53.95
2023/01/01 23:35:37+0000,-35.61,-43.52,-32.37,-35.41,-47.86,-54.61
2023/01/01 23:36:29+0000,-35.56,-43.98,-32.22,-35.98,-47.73,-53.99
2023/01/01 23:37:21+0000,-34.88,-44.59,-31.70,-36.86,-48.68,-54.80
2023/01/01 23:38:13+0000,-34.82,-43.85,-32.56,-35.68,-48.37,-54.52
2023/01/01 23:39:05+0000,-35.20,-43.14,-32.59,-36.34,-47.70,-54.53
2023/01/01 23:39:58+0000,-36.73,-43.54,-32.04,-36.69,-48.54,-53.63
2023/01/01 23:40:50+0000,-34.78,-42.83,-32.21,-36.95,-47.67,-53.11
2023/01/01 23:41:49+0000,-35.81,-43.35,-32.32,-36.91,-47.07,-53.79
2023/01/01 23:42:41+0000,-35.96,-43.29,-31.25,-36.25,-48.16,-54.51
2023/01/01 23:43:33+0000,-36.03,-42.90,-32.67,-36.63,-48.07,-54.63
2023/01/01 23:44:25+0000,-34.70,-41.94,-32.02,-36.97,-48.98,-54.91
2023/01/01 23:45:17+0000,-34.92,-44.57,-32.39,-36.40,-48.71,-54.08
2023/01/01 23:46:09+0000,-34.52,-43.47,-32.27,-36.75,-47.86,-52.93
2023/01/01 23:47:01+0000,-35.24,-43.69,-32.86,-36.64,-48.61,-53.86
2023/01/01 23:47:53+0000,-34.90,-42.81,-32.49,-37.33,-47.89,-53.77
2023/01/01 23:48:45+0000,-35.08,-42.69,-31.70,-36.33,-48.62,-53.96
2023/01/01 23:49:37+0000,-34.25,-42.72,-32.71,-36.70,-47.80,-52.92
2023/01/01 23:50:29+0000,-34.45,-42.26,-32.96,-37.00,-48.30,-53.79
2023/01/01 23:51:29+0000,-34.92,-43.89,-32.23,-36.93,-48.20,-54.03
2023/01/01 23:52:21+0000,-35.27,-41.54,-32.36,-37.54,-48.54,-54.38
2023/01/01 23:53:13+0000,-34.76,-41.81,-32.07,-36.63,-49.12,-53.05
2023/01/01 23:54:05+0000,-35.46,-44.00,-32.26,-37.10,-48.22,-53.23
2023/01/01 23:54:57+0000,-34.62,-43.27,-32.24,-37.13,-48.93,-54.45
2023/01/01 23:55:49+0000,-33.64,-43.68,-32.48,-36.81,-48.03,-54.18
2023/01/01 23:56:41+0000,-34.62,-44.71,-32.03,-36.41,-49.04,-54.35
2023/01/01 23:57:33+0000,-34.57,-43.63,-31.55,-37.65,-48.68,-54.06
2023/01/01 23:58:25+0000,-34.39,-43.57,-32.31,-37.03,-48.01,-53.75
2023/01/01 23:59:17+0000,-34.48,-42.55,-32.64,-37.39,-47.33,-54.29
2023/01/02 00:00:09+0000,-34.79,-42.74,-32.19,-36.21,-48.97,-54.09
2023/01/02 00:01:14+0000,-34.69,-43.28,-32.22,-36.74,-48.50,-54.43
2023/01/02 00:02:06+0000,-34.41,-43.53,-32.42,-37.05,-48.29,-54.13
2023/01/02 00:02:58+0000,-35.47,-42.44,-32.65,-37.17,-47.90,-54.03
2023/01/02 00:03:50+0000,-34.63,-43.77,-31.47,-37.73,-48.41,-53.32
2023/01/02 00:04:42+0000,-34.36,-42.26,-32.59,-37.26,-48.63,-53.95
2023/01/02 00:05:34+0000,-34.57,-42.56,-32.55,-37.54,-48.00,-54.32
2023/01/02 00:06:26+0000,-34.36,-41.99,-33.23,-37.47,-48.59,-53.87
2023/01/02 00:07:18+0000,-35.28,-41.98,-32.62,-37.18,-48.13,-53.44
2023/01/02 00:08:11+0000,-33.75,-39.57,-32.56,-37.19,-48.52,-54.06
2023/01/02 00:09:03+0000,-34.54,-43.69,-32.53,-38.43,-48.29,-53.83
2023/01/02 00:09:55+0000,-34.81,-42.70,-32.36,-37.57,-47.78,-53.29
2023/01/02 00:10:47+0000,-33.90,-42.22,-32.18,-36.18,-47.82,-54.20
2023/01/02 00:11:46+0000,-34.65,-42.87,-32.42,-36.07,-48.42,-53.87
2023/01/02 00:12:38+0000,-34.94,-42.49,-32.29,-36.46,-48.74,-54.34
2023/01/02 00:13:30+0000,-34.22,-41.24,-32.02,-36.93,-48.44,-53.55
2023/01/02 00:14:22+0000,-35.05,-43.63,-32.32,-37.64,-48.46,-53.40
2023/01/02 00:15:14+0000,-34.49,-42.48,-32.49,-37.08,-48.19,-54.57
2023/01/02 00:16:06+0000,-34.34,-43.90,-32.29,-36.84,-47.41,-54.04
2023/01/02 00:16:58+0000,-35.19,-42.72,-32.87,-37.13,-45.99,-53.64
2023/01/02 00:17:50+0000,-34.81,-43.25,-32.38,-36.86,-48.83,-53.23
2023/01/02 00:18:42+0000,-33.96,-42.93,-32.52,-37.85,-48.36,-54.47
2023/01/02 00:19:34+0000,-34.79,-43.07,-31.98,-37.59,-44.39,-54.14
2023/01/02 00:20:26+0000,-35.46,-42.93,-32.46,-38.16,-48.73,-53.44
2023/01/02 00:21:25+0000,-35.42,-41.50,-31.91,-37.38,-48.49,-53.60
2023/01/02 00:22:17+0000,-35.12,-44.90,-31.90,-36.89,-47.50,-53.72
2023/01/02 00:23:09+0000,-34.42,-43.54,-31.95,-37.08,-48.77,-54.16
2023/01/02 00:24:01+0000,-34.60,-42.83,-32.04,-37.87,-49.00,-54.11
2023/01/02 00:24:53+0000,-35.05,-43.71,-32.03,-36.69,-48.40,-53.70
2023/01/02 00:25:46+0000,-34.62,-42.89,-32.49,-37.54,-48.75,-54.30
2023/01/02 00:26:38+0000,-35.09,-41.89,-31.85,-38.35,-48.84,-54.64
2023/01/02 00:27:30+0000,-34.09,-44.17,-31.99,-37.22,-48.16,-53.98
2023/01/02 00:28:22+0000,-34.59,-43.72,-32.66,-37.50,-48.72,-53.79
2023/01/02 00:29:14+0000,-35.07,-43.43,-32.29,-37.36,-48.01,-54.42
2023/01/02 00:30:06+0000,-34.71,-45.14,-32.27,-37.10,-48.71,-54.61
2023/01/02 00:31:05+0000,-34.81,-44.11,-31.85,-37.06,-48.59,-55.26
2023/01/02 00:31:57+0000,-34.83,-44.10,-32.46,-37.62,-48.60,-53.92
2023/01/02 00:32:49+0000,-34.26,-43.35,-31.87,-38.41,-48.57,-53.96
2023/01/02 00:33:41+0000,-34.78,-43.43,-31.99,-38.07,-48.63,-54.32
2023/01/02 00:34:33+0000,-34.64,-44.07,-32.30,-37.68,-48.68,-54.47
2023/01/02 00:35:25+0000,-34.54,-43.78,-31.59,-37.01,-48.98,-53.81
2023/01/02 00:36:17+0000,-34.64,-43.90,-32.52,-36.80,-48.47,-54.38
2023/01/02 00:37:09+0000,-35.11,-43.61,-32.07,-35.83,-48.22,-54.81
2023/01/02 00:38:02+0000,-34.58,-44.09,-31.95,-37.98,-47.92,-54.69
2023/01/02 00:38:54+0000,-33.14,-43.78,-32.17,-37.57,-48.37,-53.90
2023/01/02 00:39:46+0000,-34.61,-44.60,-32.09,-37.33,-48.83,-54.58
2023/01/02 00:40:38+0000,-34.83,-43.37,-31.17,-37.88,-48.54,-54.83
2023/01/02 00:41:37+0000,-34.82,-44.79,-31.63,-38.05,-48.48,-53.83
2023/01/02 00:42:29+0000,-35.00,-44.95,-31.15,-36.85,-48.31,-54.94
2023/01/02 00:43:21+0000,-34.77,-44.80,-32.82,-37.54,-48.23,-55.26
2023/01/02 00:44:13+0000,-34.57,-41.74,-32.31,-37.57,-48.51,-53.76
2023/01/02 00:45:05+0000,-34.92,-44.66,-32.62,-37.73,-48.39,-53.65
2023/01/02 00:45:57+0000,-33.83,-43.96,-32.83,-37.97,-48.92,-53.27
2023/01/02 00:46:49+0000,-35.13,-44.16,-32.41,-37.80,-48.89,-53.91
2023/01/02 00:47:41+0000,-34.82,-44.13,-32.40,-37.53,-48.67,-54.69
2023/01/02 00:48:33+0000,-34.07,-43.15,-31.89,-38.03,-49.23,-54.79
2023/01/02 00:49:25+0000,-34.26,-43.68,-32.18,-37.03,-48.34,-53.46
2023/01/02 00:50:18+0000,-34.30,-43.06,-32.27,-37.28,-48.98,-54.81
2023/01/02 00:51:21+0000,-34.43,-44.63,-31.82,-37.78,-49.31,-53.64
2023/01/02 00:52:13+0000,-35.18,-44.24,-32.08,-37.04,-49.20,-54.59
2023/01/02 00:53:05+0000,-34.42,-43.26,-31.59,-37.62,-48.18,-55.09
2023/01/02 00:53:57+0000,-35.56,-44.16,-32.51,-39.28,-48.88,-53.88
2023/01/02 00:54:49+0000,-35.43,-43.14,-31.82,-37.43,-49.51,-53.80
2023/01/02 00:55:41+0000,-35.39,-43.68,-32.07,-37.49,-48.79,-54.96
2023/01/02 00:56:33+0000,-34.72,-42.82,-32.26,-36.55,-49.05,-55.11
2023/01/02 00:57:25+0000,-35.19,-42.18,-32.05,-36.69,-49.11,-53.51
2023/01/02 00:58:17+0000,-34.93,-43.28,-32.77,-36.72,-48.80,-54.79
2023/01/02 00:59:09+0000,-34.87,-44.09,-32.07,-36.84,-49.28,-54.61
2023/01/02 01:00:01+0000,-34.70,-43.94,-31.44,-37.21,-49.76,-55.48
2023/01/02 01:01:00+0000,-34.63,-43.23,-31.78,-37.65,-48.77,-54.89
2023/01/02 01:01:52+0000,-34.74,-43.42,-32.17,-36.71,-49.51,-55.30
2023/01/02 01:02:44+0000,-34.84,-43.94,-32.88,-36.38,-49.66,-55.11
2023/01/02 01:03:36+0000,-35.17,-43.71,-32.24,-36.80,-49.21,-54.77
2023/01/02 01:04:29+0000,-34.71,-43.45,-32.34,-37.16,-49.05,-54.94
2023/01/02 01:05:21+0000,-34.58,-44.49,-32.64,-37.06,-49.31,-54.23
2023/01/02 01:06:13+0000,-35.00,-42.92,-32.46,-38.05,-49.08,-54.74
2023/01/02 01:07:05+0000,-34.31,-44.67,-31.21,-37.96,-49.20,-54.54
2023/01/02 01:07:57+0000,-34.55,-44.02,-32.64,-38.55,-48.97,-54.51
2023/01/02 01:08:49+0000,-34.51,-43.94,-32.87,-39.57,-48.46,-54.85
2023/01/02 01:09:41+0000,-34.27,-43.23,-32.39,-38.74,-49.53,-54.47
2023/01/02 01:10:33+0000,-34.90,-43.73,-31.92,-40.19,-49.26,-54.69
2023/01/02 01:11:32+0000,-34.53,-43.59,-32.32,-39.97,-49.51,-53.59
2023/01/02 01:12:24+0000,-33.44,-43.12,-33.10,-38.84,-49.12,-54.82
2023/01/02 01:13:16+0000,-34.25,-42.18,-32.90,-39.44,-49.03,-54.94
2023/01/02 01:14:08+0000,-35.25,-44.55,-31.87,-38.79,-49.79,-54.67
2023/01/02 01:15:00+0000,-34.57,-44.00,-32.23,-38.42,-49.42,-53.81
2023/01/02 01:15:52+0000,-33.96,-44.26,-32.53,-38.73,-49.07,-54.91
2023/01/02 01:16:44+0000,-35.03,-44.03,-32.83,-37.85,-49.63,-54.64
2023/01/02 01:17:36+0000,-34.92,-43.63,-32.22,-38.15,-49.51,-54.49
2023/01/02 01:18:28+0000,-35.22,-44.74,-33.45,-38.71,-49.06,-54.41
2023/01/02 01:19:20+0000,-34.76,-45.23,-33.38,-38.01,-48.89,-55.22
2023/01/02 01:20:12+0000,-35.12,-43.46,-32.41,-37.22,-49.66,-54.79
2023/01/02 01:21:12+0000,-34.74,-42.58,-32.74,-35.92,-49.52,-54.72
2023/01/02 01:22:04+0000,-34.77,-43.01,-32.23,-36.04,-49.48,-54.68
2023/01/02 01:22:56+0000,-34.42,-42.75,-32.59,-36.50,-48.58,-53.91
2023/01/02 01:23:48+0000,-35.10,-43.78,-32.55,-37.27,-49.42,-54.20
2023/01/02 01:24:40+0000,-34.28,-43.88,-31.97,-36.04,-48.62,-54.38
2023/01/02 01:25:32+0000,-35.25,-43.35,-32.08,-36.35,-49.00,-53.93
2023/01/02 01:26:24+0000,-34.80,-43.51,-32.49,-36.25,-48.22,-53.75
2023/01/02 01:27:16+0000,-34.87,-42.75,-32.56,-35.96,-48.56,-54.50
2023/01/02 01:28:08+0000,-34.54,-44.54,-31.58,-36.65,-49.10,-54.21
2023/01/02 01:29:00+0000,-34.74,-44.35,-32.04,-35.50,-49.02,-53.98
2023/01/02 01:29:52+0000,-34.77,-44.77,-32.38,-35.98,-48.44,-53.65
2023/01/02 01:30:44+0000,-34.54,-42.45,-32.76,-36.45,-48.86,-53.46
2023/01/02 01:31:43+0000,-34.85,-42.63,-32.81,-35.88,-48.87,-53.87
2023/01/02 01:32:35+0000,-35.25,-44.43,-30.79,-37.27,-49.43,-54.24
2023/01/02 01:33:27+0000,-34.80,-42.93,-33.59,-36.88,-48.81,-54.46
2023/01/02 01:34:19+0000,-34.84,-44.22,-33.00,-36.57,-49.27,-54.10
2023/01/02 01:35:11+0000,-34.61,-43.22,-31.07,-36.70,-49.47,-54.04
2023/01/02 01:36:03+0000,-36.14,-41.76,-30.66,-36.17,-49.62,-53.98
2023/01/02 01:36:55+0000,-35.23,-41.89,-32.64,-36.82,-48.52,-53.85
2023/01/02 01:37:48+0000,-34.48,-43.11,-31.92,-36.42,-49.46,-53.95
2023/01/02 01:38:40+0000,-34.78,-44.19,-31.25,-36.79,-49.51,-53.94
2023/01/02 01:39:32+0000,-34.55,-43.53,-30.60,-36.92,-48.40,-54.48
2023/01/02 01:40:24+0000,-34.62,-41.60,-32.17,-36.20,-49.43,-54.08
2023/01/02 01:41:27+0000,-34.91,-41.47,-32.96,-36.16,-49.00,-54.39
2023/01/02 01:42:19+0000,-34.51,-41.76,-32.74,-37.16,-48.46,-54.51
2023/01/02 01:43:11+0000,-34.51,-41.36,-30.07,-36.08,-48.70,-53.93
2023/01/02 01:44:03+0000,-34.56,-42.69,-30.33,-35.69,-49.58,-54.25
2023/01/02 01:44:55+0000,-35.37,-43.16,-32.37,-36.88,-48.50,-54.48
2023/01/02 01:45:47+0000,-35.27,-42.28,-32.03,-37.01,-49.01,-53.92
2023/01/02 01:46:39+0000,-34.56,-42.66,-29.84,-36.71,-49.58,-54.15
2023/01/02 01:47:31+0000,-34.66,-41.51,-30.58,-37.12,-48.78,-53.65
2023/01/02 01:48:23+0000,-35.22,-42.42,-32.98,-37.53,-49.28,-53.71
2023/01/02 01:49:15+0000,-34.61,-43.38,-32.77,-36.43,-48.70,-54.14
2023/01/02 01:50:08+0000,-34.13,-42.38,-31.11,-37.43,-48.34,-54.01
2023/01/02 01:51:07+0000,-35.22,-42.81,-31.72,-37.67,-49.40,-54.25
2023/01/02 01:52:00+0000,-35.09,-42.97,-32.64,-36.55,-49.33,-54.17
2023/01/02 01:52:52+0000,-35.16,-43.86,-32.35,-37.58,-49.08,-54.06
2023/01/02 01:53:44+0000,-35.42,-41.45,-33.16,-36.28,-48.70,-54.38
2023/01/02 01:54:36+0000,-35.22,-42.40,-31.20,-37.22,-48.24,-54.16
2023/01/02 01:55:28+0000,-35.11,-42.29,-32.77,-36.95,-49.04,-53.73
2023/01/02 01:56:20+0000,-35.07,-41.63,-32.61,-37.31,-48.63,-53.67
2023/01/02 01:57:12+0000,-34.47,-41.62,-31.79,-37.31,-48.95,-53.92
2023/01/02 01:58:04+0000,-35.15,-43.09,-32.32,-36.93,-49.02,-53.95
2023/01/02 01:58:56+0000,-34.43,-41.98,-32.54,-36.65,-48.67,-54.38
2023/01/02 01:59:48+0000,-34.73,-44.73,-32.10,-38.81,-48.63,-54.33
2023/01/02 02:00:40+0000,-34.93,-43.93,-32.34,-39.32,-49.11,-54.56
2023/01/02 02:01:40+0000,-34.77,-44.48,-32.19,-37.40,-48.97,-54.21
2023/01/02 02:02:32+0000,-35.09,-44.24,-32.80,-38.37,-49.61,-54.98
2023/01/02 02:03:24+0000,-34.96,-43.15,-32.33,-36.73,-49.00,-54.00
2023/01/02 02:04:16+0000,-35.47,-43.27,-32.84,-36.90,-48.48,-53.75
2023/01/02 02:05:08+0000,-35.26,-43.64,-32.55,-36.59,-48.69,-54.30
2023/01/02 02:06:00+0000,-34.84,-42.78,-32.76,-37.11,-48.29,-54.89
2023/01/02 02:06:52+0000,-35.61,-43.23,-32.06,-36.37,-48.25,-53.62
2023/01/02 02:07:44+0000,-35.27,-44.09,-31.93,-37.22,-48.40,-54.01
2023/01/02 02:08:36+0000,-35.61,-45.80,-32.82,-36.64,-48.08,-54.20
2023/01/02 02:09:28+0000,-33.29,-43.87,-32.32,-37.17,-47.84,-54.41
2023/01/02 02:10:20+0000,-33.55,-45.26,-32.48,-37.16,-48.41,-53.96
2023/01/02 02:11:19+0000,-32.90,-43.14,-31.85,-37.89,-48.15,-54.16
2023/01/02 02:12:11+0000,-34.76,-44.64,-31.98,-37.87,-48.52,-54.41
2023/01/02 02:13:03+0000,-34.78,-43.50,-32.41,-36.93,-48.49,-53.93
2023/01/02 02:13:55+0000,-35.15,-43.51,-32.37,-36.88,-48.16,-54.34
2023/01/02 02:14:47+0000,-34.61,-43.34,-32.49,-36.66,-48.27,-54.27
2023/01/02 02:15:39+0000,-34.65,-44.19,-32.42,-37.77,-47.77,-53.99
2023/01/02 02:16:31+0000,-33.51,-43.20,-32.72,-37.34,-48.07,-54.30
2023/01/02 02:17:23+0000,-34.37,-44.63,-32.40,-37.32,-48.21,-53.96
2023/01/02 02:18:15+0000,-34.57,-44.41,-32.77,-36.88,-48.74,-54.11
2023/01/02 02:19:07+0000,-34.73,-45.16,-32.95,-36.55,-47.98,-53.91
2023/01/02 02:19:59+0000,-35.40,-43.25,-32.86,-37.11,-48.09,-54.94
2023/01/02 02:20:51+0000,-34.75,-45.98,-32.62,-36.62,-48.64,-54.52
2023/01/02 02:21:50+0000,-34.27,-46.36,-32.32,-36.88,-48.01,-54.04
2023/01/02 02:22:42+0000,-35.09,-42.54,-32.64,-37.12,-48.15,-53.83
2023/01/02 02:23:34+0000,-34.15,-41.19,-32.72,-37.10,-48.67,-54.05
2023/01/02 02:24:26+0000,-35.18,-43.21,-32.89,-37.07,-47.70,-54.15
2023/01/02 02:25:18+0000,-33.64,-42.44,-33.08,-37.68,-48.37,-54.21
2023/01/02 02:26:10+0000,-34.65,-42.70,-32.85,-37.82,-47.64,-54.34
2023/01/02 02:27:02+0000,-34.99,-44.14,-33.08,-37.41,-47.99,-53.57
2023/01/02 02:27:54+0000,-34.77,-44.62,-32.66,-37.12,-48.19,-54.45
2023/01/02 02:28:46+0000,-34.72,-43.63,-31.75,-36.96,-48.30,-53.64
2023/01/02 02:29:38+0000,-33.92,-45.26,-31.99,-36.79,-47.78,-53.88
2023/01/02 02:30:31+0000,-35.28,-44.10,-31.58,-36.81,-48.37,-54.07
2023/01/02 02:31:32+0000,-35.46,-42.08,-32.05,-38.01,-48.41,-54.23
2023/01/02 02:32:24+0000,-34.34,-40.72,-32.26,-36.81,-48.36,-53.99
2023/01/02 02:33:16+0000,-34.57,-42.64,-32.10,-37.72,-48.01,-54.17
2023/01/02 02:34:08+0000,-34.28,-42.23,-32.38,-37.49,-47.68,-54.17
2023/01/02 02:35:01+0000,-34.40,-42.93,-32.32,-38.33,-48.07,-54.04
2023/01/02 02:35:53+0000,-33.36,-42.71,-32.17,-38.39,-48.47,-54.66
2023/01/02 02:36:45+0000,-33.05,-43.37,-32.70,-37.67,-47.74,-54.43
2023/01/02 02:37:37+0000,-34.21,-44.13,-32.24,-37.02,-48.21,-54.56
2023/01/02 02:38:29+0000,-33.07,-42.40,-32.43,-37.02,-47.96,-54.15
2023/01/02 02:39:21+0000,-34.63,-43.58,-32.28,-37.71,-47.75,-53.90
2023/01/02 02:40:13+0000,-34.64,-43.07,-32.35,-37.43,-48.50,-54.99
2023/01/02 02:41:11+0000,-34.41,-42.87,-32.30,-37.35,-47.83,-54.20
2023/01/02 02:42:03+0000,-34.12,-40.15,-32.64,-37.54,-48.20,-54.06
2023/01/02 02:42:55+0000,-34.16,-40.78,-32.81,-37.38,-48.65,-54.31
2023/01/02 02:43:47+0000,-35.29,-42.62,-32.49,-36.61,-48.32,-53.68
2023/01/02 02:44:39+0000,-34.54,-44.00,-32.23,-37.66,-48.10,-54.49
2023/01/02 02:45:31+0000,-34.22,-40.94,-32.05,-37.52,-48.15,-53.67
2023/01/02 02:46:23+0000,-33.84,-41.82,-32.85,-37.61,-47.80,-53.72
2023/01/02 02:47:15+0000,-34.49,-43.70,-33.25,-37.16,-47.88,-54.01
2023/01/02 02:48:07+0000,-34.00,-45.80,-32.67,-37.29,-47.99,-53.94
2023/01/02 02:48:59+0000,-33.70,-40.70,-32.55,-37.20,-48.50,-53.88
2023/01/02 02:49:51+0000,-34.16,-43.33,-32.56,-36.52,-48.04,-54.00
2023/01/02 02:50:43+0000,-34.49,-43.40,-33.09,-37.41,-47.92,-54.02
2023/01/02 02:51:41+0000,-33.34,-43.50,-31.47,-37.48,-48.20,-53.65
2023/01/02 02:52:33+0000,-34.60,-42.95,-32.41,-36.91,-47.95,-54.19
2023/01/02 02:53:26+0000,-33.58,-42.89,-32.98,-36.82,-48.21,-53.89
2023/01/02 02:54:18+0000,-33.42,-42.39,-32.22,-37.29,-47.74,-53.69
2023/01/02 02:55:10+0000,-33.95,-43.75,-32.30,-36.57,-47.86,-54.17
2023/01/02 02:56:02+0000,-33.95,-43.01,-32.24,-37.85,-48.54,-54.20
2023/01/02 02:56:54+0000,-34.10,-41.48,-32.70,-37.15,-48.17,-53.82
2023/01/02 02:57:46+0000,-35.41,-42.51,-32.16,-37.35,-47.55,-53.36
2023/01/02 02:58:38+0000,-34.26,-43.00,-33.09,-36.92,-46.95,-54.05
2023/01/02 02:59:30+0000,-34.15,-42.11,-32.76,-37.29,-48.04,-54.16
2023/01/02 03:00:22+0000,-34.17,-44.85,-32.31,-37.55,-47.47,-53.26
2023/01/02 03:01:22+0000,-33.98,-43.21,-32.71,-37.07,-47.88,-53.80
2023/01/02 03:02:14+0000,-34.42,-42.93,-32.92,-38.48,-47.78,-53.22
2023/01/02 03:03:06+0000,-34.10,-44.25,-32.49,-37.40,-48.07,-54.20
2023/01/02 03:03:58+0000,-34.69,-41.36,-32.63,-38.34,-48.11,-54.23
2023/01/02 03:04:50+0000,-35.05,-44.15,-33.04,-37.86,-48.25,-53.73
2023/01/02 03:05:42+0000,-34.17,-41.34,-32.83,-38.12,-47.88,-53.85
2023/01/02 03:06:34+0000,-34.76,-42.46,-32.66,-38.36,-47.62,-54.19
2023/01/02 03:07:26+0000,-35.20,-42.19,-32.40,-37.21,-47.84,-53.77
2023/01/02 03:08:18+0000,-34.59,-41.86,-32.24,-37.76,-48.25,-54.30
2023/01/02 03:09:11+0000,-34.08,-41.29,-32.07,-37.32,-47.66,-54.27
2023/01/02 03:10:03+0000,-34.10,-43.00,-32.48,-37.28,-48.30,-53.33
2023/01/02 03:11:03+0000,-34.12,-42.89,-32.15,-37.72,-48.09,-53.90
2023/01/02 03:11:55+0000,-34.22,-42.82,-32.03,-38.08,-48.42,-53.89
2023/01/02 03:12:47+0000,-34.14,-42.12,-32.68,-37.53,-47.97,-53.82
2023/01/02 03:13:39+0000,-34.32,-41.73,-32.77,-36.80,-47.85,-53.44
2023/01/02 03:14:31+0000,-34.58,-42.39,-31.86,-38.26,-48.49,-54.17
2023/01/02 03:15:23+0000,-34.97,-42.41,-32.13,-38.01,-48.57,-53.56
2023/01/02 03:16:15+0000,-35.36,-43.23,-32.67,-36.88,-48.43,-53.53
2023/01/02 03:17:08+0000,-34.46,-43.57,-32.24,-38.34,-48.07,-53.73
2023/01/02 03:18:00+0000,-34.05,-41.89,-32.52,-36.99,-44.85,-50.05
2023/01/02 03:18:52+0000,-34.30,-42.87,-31.92,-37.06,-42.13,-51.05
2023/01/02 03:19:44+0000,-34.91,-42.06,-32.37,-37.96,-44.08,-51.84
2023/01/02 03:20:36+0000,-33.68,-43.96,-32.34,-37.44,-45.20,-51.46
2023/01/02 03:21:35+0000,-34.38,-42.90,-31.95,-37.52,-45.58,-51.43
2023/01/02 03:22:27+0000,-34.50,-42.47,-32.12,-37.31,-44.60,-50.90
2023/01/02 03:23:19+0000,-34.63,-41.94,-31.98,-38.06,-45.38,-51.45
2023/01/02 03:24:11+0000,-35.22,-43.42,-32.07,-37.70,-45.65,-51.85
2023/01/02 03:25:03+0000,-34.94,-42.33,-32.08,-36.44,-46.44,-51.57
2023/01/02 03:25:55+0000,-34.83,-43.45,-31.86,-37.21,-46.55,-51.67
2023/01/02 03:26:47+0000,-34.60,-42.59,-32.27,-36.69,-47.31,-51.67
2023/01/02 03:27:39+0000,-34.49,-43.77,-31.91,-37.37,-46.43,-51.89
2023/01/02 03:28:31+0000,-35.57,-42.50,-31.41,-38.23,-46.66,-52.21
2023/01/02 03:29:23+0000,-34.64,-42.61,-32.40,-37.85,-47.62,-51.69
2023/01/02 03:30:16+0000,-34.69,-40.81,-32.12,-38.02,-47.53,-52.13
2023/01/02 03:31:15+0000,-34.33,-43.55,-32.16,-37.89,-47.75,-51.67
2023/01/02 03:32:07+0000,-34.22,-44.32,-32.10,-37.77,-47.59,-51.63
2023/01/02 03:32:59+0000,-34.83,-43.43,-32.95,-38.21,-46.92,-52.80
2023/01/02 03:33:51+0000,-34.80,-43.77,-31.83,-39.05,-47.84,-52.64
2023/01/02 03:34:43+0000,-33.44,-43.78,-32.86,-37.95,-47.20,-52.24
2023/01/02 03:35:35+0000,-33.72,-43.72,-32.33,-37.80,-47.32,-51.65
2023/01/02 03:36:27+0000,-35.28,-42.98,-32.11,-38.54,-46.80,-52.25
2023/01/02 03:37:19+0000,-34.05,-43.29,-31.98,-37.94,-47.23,-52.25
2023/01/02 03:38:11+0000,-33.30,-44.43,-31.99,-37.97,-47.65,-52.33
2023/01/02 03:39:03+0000,-33.95,-43.94,-31.85,-37.60,-47.32,-52.65
2023/01/02 03:39:55+0000,-35.06,-43.75,-32.41,-36.59,-48.01,-52.33
2023/01/02 03:40:47+0000,-34.25,-43.52,-32.21,-37.43,-47.51,-52.48
2023/01/02 03:41:45+0000,-34.39,-42.11,-31.68,-37.62,-47.75,-52.36
2023/01/02 03:42:37+0000,-34.43,-43.29,-32.13,-37.61,-48.13,-52.48
2023/01/02 03:43:29+0000,-35.09,-43.30,-32.10,-38.92,-48.05,-51.96
2023/01/02 03:44:21+0000,-34.89,-43.02,-31.90,-37.96,-47.73,-52.29
2023/01/02 03:45:13+0000,-34.61,-41.37,-32.15,-37.74,-47.30,-52.76
2023/01/02 03:46:05+0000,-34.02,-44.17,-31.63,-39.00,-47.77,-52.10
2023/01/02 03:46:57+0000,-34.55,-43.12,-31.62,-37.78,-47.34,-52.92
2023/01/02 03:47:49+0000,-34.09,-42.37,-31.79,-36.83,-48.31,-52.00
2023/01/02 03:48:41+0000,-34.34,-42.24,-31.70,-36.60,-47.89,-52.64
2023/01/02 03:49:33+0000,-34.44,-43.07,-32.04,-37.27,-48.50,-52.08
2023/01/02 03:50:25+0000,-34.95,-42.85,-31.75,-36.95,-47.76,-52.41
2023/01/02 03:51:24+0000,-33.87,-43.08,-31.59,-36.83,-48.14,-52.98
2023/01/02 03:52:16+0000,-34.10,-44.00,-31.46,-37.59,-48.19,-52.64
2023/01/02 03:53:08+0000,-34.71,-45.06,-31.35,-37.82,-45.96,-51.90
2023/01/02 03:54:01+0000,-33.90,-44.06,-31.68,-37.62,-46.74,-53.25
2023/01/02 03:54:53+0000,-33.51,-44.70,-31.56,-37.23,-48.59,-53.34
2023/01/02 03:55:45+0000,-34.43,-42.70,-31.90,-37.23,-48.11,-51.84
2023/01/02 03:56:37+0000,-33.72,-44.47,-32.18,-37.15,-47.66,-51.78
2023/01/02 03:57:29+0000,-33.95,-43.78,-32.11,-37.89,-48.12,-53.41
2023/01/02 03:58:21+0000,-33.90,-44.05,-32.25,-37.61,-48.34,-53.41
2023/01/02 03:59:13+0000,-33.98,-44.44,-31.88,-37.67,-48.02,-53.74
2023/01/02 04:00:05+0000,-34.65,-43.06,-31.51,-37.36,-47.67,-53.41
2023/01/02 04:01:05+0000,-34.09,-44.67,-32.54,-36.76,-48.20,-52.91
2023/01/02 04:01:57+0000,-34.01,-44.61,-31.98,-37.81,-48.66,-53.07
2023/01/02 04:02:49+0000,-34.31,-44.58,-32.14,-37.11,-48.66,-53.83
2023/01/02 04:03:41+0000,-34.77,-43.89,-32.13,-38.18,-48.72,-53.61
2023/01/02 04:04:33+0000,-34.67,-43.79,-32.29,-37.61,-47.34,-53.67
2023/01/02 04:05:25+0000,-34.18,-44.16,-31.87,-37.96,-48.96,-53.56
2023/01/02 04:06:17+0000,-34.44,-43.86,-31.92,-38.02,-48.34,-53.28
2023/01/02 04:07:09+0000,-34.29,-43.86,-32.21,-37.77,-47.84,-53.28
2023/01/02 04:08:01+0000,-33.94,-44.46,-32.58,-37.12,-47.92,-53.57
2023/01/02 04:08:53+0000,-34.07,-44.40,-31.63,-37.85,-47.91,-53.94
2023/01/02 04:09:45+0000,-34.32,-42.24,-32.08,-37.89,-47.99,-53.72
2023/01/02 04:10:38+0000,-34.22,-42.92,-32.42,-37.74,-48.08,-53.08
2023/01/02 04:11:37+0000,-34.22,-42.83,-31.75,-37.13,-47.91,-53.21
2023/01/02 04:12:29+0000,-34.94,-43.70,-32.38,-37.76,-48.53,-53.19
2023/01/02 04:13:21+0000,-33.81,-44.53,-32.12,-37.98,-48.31,-53.61
2023/01/02 04:14:13+0000,-34.85,-42.77,-32.73,-37.68,-48.53,-52.84
2023/01/02 04:15:05+0000,-35.29,-45.14,-31.93,-38.11,-48.77,-53.17
2023/01/02 04:15:57+0000,-33.85,-44.25,-32.54,-37.97,-47.95,-53.79
2023/01/02 04:16:49+0000,-34.55,-42.76,-31.90,-37.92,-48.82,-53.22
2023/01/02 04:17:41+0000,-34.61,-42.29,-32.20,-37.84,-48.72,-53.58
2023/01/02 04:18:33+0000,-34.76,-43.85,-32.69,-37.55,-48.55,-53.19
2023/01/02 04:19:25+0000,-35.12,-44.68,-32.69,-37.83,-48.09,-53.23
2023/01/02 04:20:17+0000,-34.91,-42.92,-32.53,-37.31,-47.99,-53.27
2023/01/02 04:21:17+0000,-35.13,-42.75,-32.53,-38.05,-48.33,-53.14
2023/01/02 04:22:09+0000,-33.96,-42.69,-31.80,-37.47,-48.10,-53.71
2023/01/02 04:23:01+0000,-34.69,-43.65,-32.50,-36.99,-47.82,-53.44
2023/01/02 04:23:53+0000,-34.46,-44.43,-32.70,-37.65,-46.84,-53.72
2023/01/02 04:24:45+0000,-35.34,-44.30,-31.46,-38.56,-48.13,-52.99
2023/01/02 04:25:37+0000,-35.07,-44.99,-32.22,-37.90,-47.79,-52.93
2023/01/02 04:26:29+0000,-35.02,-43.50,-32.74,-37.73,-47.19,-52.82
2023/01/02 04:27:21+0000,-34.64,-44.03,-32.40,-37.66,-47.54,-53.46
2023/01/02 04:28:13+0000,-34.97,-44.46,-31.67,-37.67,-48.39,-53.39
2023/01/02 04:29:05+0000,-33.71,-43.26,-31.46,-37.24,-47.63,-53.33
2023/01/02 04:29:57+0000,-34.34,-44.55,-31.73,-36.72,-47.25,-53.11
2023/01/02 04:30:49+0000,-34.02,-43.69,-32.13,-38.25,-47.28,-53.40
2023/01/02 04:31:49+0000,-35.04,-44.15,-32.18,-38.26,-48.06,-53.11
2023/01/02 04:32:41+0000,-34.05,-44.67,-32.54,-37.93,-47.82,-52.58
2023/01/02 04:33:33+0000,-34.80,-43.41,-31.80,-37.61,-48.46,-52.70
2023/01/02 04:34:25+0000,-34.16,-44.37,-32.77,-38.02,-47.84,-53.68
2023/01/02 04:35:17+0000,-34.24,-44.20,-31.80,-37.27,-47.74,-52.91
2023/01/02 04:36:09+0000,-34.81,-44.39,-32.17,-37.23,-47.92,-52.74
2023/01/02 04:37:01+0000,-34.83,-42.94,-31.53,-38.07,-48.47,-52.91
2023/01/02 04:37:53+0000,-35.25,-43.41,-32.55,-37.98,-47.41,-52.10
2023/01/02 04:38:45+0000,-35.55,-44.48,-31.77,-37.11,-47.48,-52.36
2023/01/02 04:39:37+0000,-35.14,-44.67,-31.88,-37.35,-48.15,-52.47
2023/01/02 04:40:29+0000,-33.59,-43.37,-31.90,-37.25,-48.16,-53.14
2023/01/02 04:41:33+0000,-35.47,-43.82,-32.09,-36.82,-48.22,-52.61
2023/01/02 04:42:25+0000,-34.73,-44.06,-31.85,-37.55,-47.67,-45.25
2023/01/02 04:43:17+0000,-34.99,-43.21,-32.12,-38.27,-48.09,-52.80
2023/01/02 04:44:09+0000,-34.77,-43.59,-31.94,-37.88,-47.68,-52.25
2023/01/02 04:45:01+0000,-34.80,-43.08,-32.42,-38.75,-48.44,-52.88
2023/01/02 04:45:53+0000,-33.88,-44.38,-32.41,-37.89,-48.17,-52.57
2023/01/02 04:46:45+0000,-34.70,-44.03,-32.87,-37.66,-47.80,-52.77